Flag for Myanmar Weather past 2 weeks in Yangon, Myanmar

Now
86 °F

Mostly cloudy.


Feels Like: 97 °F
Forecast: 78 / 85 °F
Wind: 9 mph from Southwest

Location: Rangoon Airport

Current Time: Jul 29, 2015 at 12:04:55 PM

Latest Report: Jul 29, 2015 at 11:30 AM


Visibility: 5 mi

Pressure: 29.77 "Hg

Humidity: 75%

Dew point: 77 °F

Location of YangonLocation

Historic Weather in Yangon — Graph

°F

Yangon temperature yesterday

Maximum temperature yesterday: 84 °F (at 9:00 AM)
Minimum temperature yesterday: 75 °F (at 1:00 AM)
Average temperature yesterday: 78 °F

Past Weeks' High & Low Weather Summary

 TemperatureHumidityPressure
High90 °F (Jul 18, 12:00 PM)100% (Jul 14, 12:00 PM)29.92 "Hg (Jul 14, 12:00 PM)
Low73 °F (Jul 25, 6:00 AM)70% (Jul 24, 4:30 PM)29.53 "Hg (Jul 14, 5:00 PM)
Average80 °F93%29.73 "Hg
* Reported Jul 14 11:30 AM — Jul 29 11:30 AM, Yangon, Weather by CustomWeather, © 2015

Note: Actual official high and low records may vary slightly from our data, if they occured in-between our weather recording intervals... More about our weather records

Advertising

Yangon weather history for previous 24 hours

 ConditionsComfort  
Time TempWeatherWind HumidityBarometerVisibility
11:30 AM
Wed, Jul 29
86 °FMostly cloudy.9 mph75%29.77 "Hg5 mi
11:00 AM84 °FMostly cloudy.8 mph84%29.77 "Hg5 mi
10:30 AM81 °FMostly cloudy.9 mph94%29.80 "Hg4 mi
10:00 AM81 °FMostly cloudy.12 mph94%29.80 "Hg4 mi
9:30 AM79 °FMostly cloudy.10 mph94%29.80 "Hg4 mi
9:00 AM79 °FDrizzle. Mostly cloudy.8 mph94%29.80 "Hg4 mi
8:30 AM77 °FMostly cloudy.12 mph89%29.80 "Hg4 mi
8:00 AM77 °FMostly cloudy.10 mph89%29.77 "Hg4 mi
7:30 AM77 °FMostly cloudy.8 mph89%29.77 "Hg4 mi
7:00 AM77 °FMostly cloudy.5 mph89%29.77 "Hg4 mi
6:30 AM77 °FMostly cloudy.3 mph89%29.77 "Hg4 mi
6:00 AM77 °FMostly cloudy.3 mph89%29.74 "Hg4 mi
5:30 AM75 °FDrizzle. Mostly cloudy.5 mph100%29.74 "Hg3 mi
5:00 AM75 °FDrizzle. Overcast.5 mph100%29.74 "Hg3 mi
4:30 AM75 °FDrizzle. Mostly cloudy.5 mph100%29.74 "Hg3 mi
4:00 AM75 °FMostly cloudy.2 mph100%29.71 "Hg3 mi
2:30 AM77 °FRain. Mostly cloudy.8 mph100%29.74 "Hg2 mi
2:00 AM77 °FRain. Mostly cloudy.12 mph100%29.77 "Hg2 mi
1:30 AM77 °FRain. Mostly cloudy.12 mph100%29.77 "Hg2 mi
1:00 AM77 °FRain. Mostly cloudy.12 mph100%29.77 "Hg2 mi
12:30 AM79 °FMostly cloudy.12 mph94%29.77 "Hg4 mi
12:00 AM79 °FMostly cloudy.13 mph94%29.80 "Hg4 mi
11:30 PM
Tue, Jul 28
79 °FMostly cloudy.10 mph94%29.80 "Hg4 mi
10:00 PM77 °FMostly cloudy.9 mph89%29.80 "Hg4 mi
9:30 PM77 °FMostly cloudy.8 mph89%29.80 "Hg4 mi
9:00 PM77 °FMostly cloudy.8 mph89%29.80 "Hg4 mi
8:00 PM79 °FMostly cloudy.8 mph100%29.77 "Hg4 mi
7:30 PM79 °FMostly cloudy.9 mph100%29.77 "Hg3 mi
7:00 PM79 °FMostly cloudy.8 mph100%29.74 "Hg3 mi
6:30 PM79 °FDrizzle. Mostly cloudy.13 mph100%29.74 "Hg3 mi
6:00 PM79 °FDrizzle. Mostly cloudy.10 mph100%29.74 "Hg3 mi
5:30 PM79 °FDrizzle. Mostly cloudy.6 mph100%29.74 "Hg3 mi
5:00 PM79 °FDrizzle. Mostly cloudy.12 mph100%29.74 "Hg3 mi
4:30 PM79 °FLight rain. Mostly cloudy.5 mph100%29.71 "Hg3 mi
4:00 PM77 °FRain showers. Mostly cloudy.13 mph100%29.74 "Hg2 mi
3:30 PM79 °FDrizzle. Mostly cloudy.12 mph100%29.71 "Hg3 mi
3:00 PMN/ARain.10 mphN/AN/A2 mi
2:30 PM79 °FDrizzle. Mostly cloudy.5 mph94%29.74 "Hg3 mi
2:00 PM79 °FDrizzle. Mostly cloudy.7 mph94%29.74 "Hg3 mi
1:30 PM75 °FLight rain. Mostly cloudy.5 mph100%29.74 "Hg2 mi
1:00 PM75 °FLight rain. Mostly cloudy.6 mph100%29.77 "Hg2 mi
12:30 PM75 °FRain. Mostly cloudy.7 mph100%29.77 "Hg2 mi
12:00 PM75 °FRain. Mostly cloudy.9 mph100%29.80 "Hg2 mi
Weather by CustomWeather, © 2015

See weather overviewHow to use our weather pages